Погода в Сусумане

Погода в Сусумане : погода сейчас, прогноз погоды и архив. Всё, что Вы хотите узнать о погоде в Сусумане!

Поиск расширенной информации на нашем сайте:

Другие новости

Новости СМИ2

Главная страница сайта

Новости сайта

02.10.2013

Напоминаем, что на нашем новом сайте вы можете получить высокодетализированные прогнозы погоды по пунктам России, СНГ и мира (включающие важные для авиации метеовеличины, такие как направление и скорость ветра, видимость, явления погоды, количество и форма облачности, нижняя и верхняя граница облачности), а также ознакомиться с разнообразными материалами по авиационной метеорологии и подборкой полезных ссылок на эту тему.

Сайт Метеоцентр.Азия посвящён разработке технологий оптимизации авиаметеорологического обслуживания, включая проектирование и перспективное создание нескольких автоматизированных авиаметеорологических систем:
- система выпуска высокодетальных прогностических карт явлений погоды для нижнего воздушного пространства по России и ближнему зарубежью;
- система верификации прогнозов TAF (выпускаемых синоптиками официальных АМСГ РФ и ближнего зарубежья) и AUTOTAF (выпускаемых сайтом Метеоцентр.Азия) - выявление ошибок, онлайн-сопоставление с фактической погодой METAR, автоматическое внесение коррективов в прогнозы при резком отклонении фактической погоды от прогноза, подсчёт оправдываемости прогнозов по элементам и в целом;
- система обработки, анализа и отображения авиаметеорологической информации для применения провайдерами метеорологической информации.


Погода в Сусумане - сегодня

Время (UTC), дата Ветер
(°,м/с) 
Видим.   Явления Облачность Т
(°С)
Тd
(°С)
f(%) Тe
(°С)
Pmin
(гПа)
dP
(гПа)
Po
(мм)
O2
(г/м3)
Тmin Tmax R s Состояние
почвы
00 24.04.17 060 (СВ) 20000 м    ясно 
+1.7 -7.2 52 +1  1027.2  -1  710  285           
03 24.04.17 210 (ЮЗ) 20000 м    ясно 
+6.2 -6.6 39 +6  1023.6  -1.2  709  280           
06 24.04.17 220 (ЮЗ) н/о    н/о 
+6.8 -5.9 40 +7  1022  708  279           
09 24.04.17 230 (ЮЗ) 20000 м    ясно 
+5 -6.1 44 +5  1021.6  -0.9  707  280    +7.2       
12 24.04.17 230 (ЮЗ) 20000 м    ясно 
-2.1 -6.9 70 -4  1023.3  -0.4  707  288           
15 24.04.17 120 (ЮВ) 20000 м    ясно 
-9.5 -11.3 87 -9  1025.1  -0.5  707  296           
18 24.04.17 100 (В) 20000 м    ясно 
-12.4 -13.7 90 -14  1025.6  -0.4  706  299           
21 24.04.17 060 (СВ) 20000 м    ясно 
-6.4 -9.9 76 -6  1022.6  -0.9  706  292  -12.7      неравномерный
мокрый или
старый снег
100% 
00 25.04.17 200 (Ю) 20000 м    ясно 
+0.2 -7.1 58 -1  1019  -1.5  705  284           
03 25.04.17 210 (ЮЗ) 20000 м    ясно 
+5.1 -6.6 42 +3  1015.6  -1.8  703  279           
06 25.04.17 280 (З) 20000 м    ясно 
+6.3 -8.1 35 +5  1014.2  -1  703  277           
09 25.04.17 280 (З) 20000 м    1/1 1000 м 
[Sc]
+5.3 -8.3 37 +4  1013.9  -0.5  702  278    +7       
12 25.04.17 тихо ()   20000 м    1/1 1000 м 
[Sc]
-2.9 -7.8 69 -3  1016.3  702  287           
15 25.04.17 050 (СВ) 20000 м    ясно 
-8 -10.4 83 -8  1017.7  -0.2  702  292           
18 25.04.17 110 (В) 16  0100 м    1/1 1500 м 
-12.8   1018.8  -0.2  702             
21 25.04.17 040 (СВ) 20000 м    ясно 
-5.2 -9.5 72 -8  1016  -0.6  701  289  -12.3      мокрый или
старый снег
50-90% 
00 26.04.17 040 (СВ) 20000 м    10/0 верхняя 
[Cs]
+2.4 -7.9 46 +2  1012.1  -1.5  700  280           
03 26.04.17 120 (ЮВ) 20000 м    10/3 1000 м верхняя 
[Cu hum|Cs]
+6 -9.1 33 +6  1009.5  -1.4  699  276           
06 26.04.17 130 (ЮВ) 20000 м    8/3 1000 м верхняя 
[Cu Sc|Ci fib]
+5.4 -9.5 33 +4  1008.4  -1.1  698  277           
09 26.04.17 180 (Ю) 20000 м    6/1 1000 м верхняя 
[Sc|Ci fib]
+4 -8.8 39 +5  1008.1  -0.7  698  278    +6.4       
12 26.04.17 040 (СВ) 20000 м    8/3 1000 м верхняя 
[Sc|Ci fib]
-2.8 -7.2 72 -4  1009.8  -0.3  698  285           
15 26.04.17 060 (СВ) 20000 м    8/3 1000 м верхняя 
[Sc|Ci fib]
-6.3 -9.2 80 -9  1009.9  -0.9  697  288           
18 26.04.17 080 (В) 20000 м    9/0 средняя, верхняя 
[Ac trans|Ci fib]
-9.7 -11.5 87 -10  1010.1  -0.8  696  292           
21 26.04.17 070 (В) 20000 м    9/0 средняя, верхняя 
[Ac trans|Ci fib]
-3.1 -7.6 71 -4  1006.5  -1.3  695  284  -10.1      мокрый или
старый снег
10-40% 
00 27.04.17 020 (С) 10 км  слаб. ливневой дождь со снегом  10/10 900 м кучево-дожд. 
[Cb cap]
+1.2 -4.6 65 +1  1003.8  -1.3  694  279           
Время (UTC), дата Ветер
(°,м/с) 
Видим.   Явления Облачность Т
(°С)
Тd
(°С)
f(%) Тe
(°С)
Pmin
(гПа)
dP
(гПа)
Po
(мм)
O2
(г/м3)
Тmin Tmax R s Состояние
почвы

Для получения пояснительной информации подведите курсор к названию столбца.

ПОГОДА в Сусумане - архив

Всё, что Вы хотите узнать о погоде в Сусумане - удобно и подробно!

Выберите нужную дату (начиная с 1 января 2015* года) и нажмите кнопку "Найти".
Будут отображены архивные сводки погоды по пункту Сусуман, начиная с указанной даты.


Отображать данные в формате CSV (для использования в таблицах Excel)


Внимание! Наш архив погоды предназначен исключительно для личного некоммерческого использования в познавательных целях. Если Вам необходимы официальные справки о состоянии погоды (для производственных, юридических, коммерческих и т.п. целей), обращайтесь в органы Росгидромета.

*Примечание: данная дата относится к архиву по метеостанциям СССР (Россия, СНГ, Балтия).
Архив по метеостанциям Зарубежной Европы и Азии (кроме Китая) хранится 10 дней, по другим регионам земного шара (Китай, Африка, Америка, Австралия, Океания) - 1 день.

Сусуман - район местоположения метеостанции


Название, широта, долгота, высота метеостанции:
Сусуман 62.8°ш. 148.2°д. 655 м над ур. моря [Российская Федерация]

Дополнительная информация

В oтличие oт бoльшинства пoгoдных сайтoв мы публикуем пoдрoбную метеoинфoрмацию в детальнoм прoфессиoнальнoм фoрмате.

Характеристики температуры и влажнoсти вoздуха измеряются на высoте 2 м в тени вдали oт зданий и деревьев.
Скoрoсть ветра измеряется на высoте 10 м (на урoвне рoста челoвека скoрoсть ветра ниже в 1.5-2 раза). Если метеoстанция нахoдится в гoрoде или в лесу, тo скoрoсть ветра занижена на 2-4 м/с пo сравнению с oткрытым местoм. Скoрoсть ветра над акватoриями крупных рек и oзёр, а также на вершинах хoлмoв на 2-5 м/с выше, чем в oбычных услoвиях.
Атмoсфернoе давление в разных тoчках местнoсти мoжет значительнo oтличаться oт давления на метеoстанции, в зависимoсти oт услoвий рельефа (при пoдъёме на 10 м давление пoнижается примернo на 1 мм рт.ст.).